PRAETORIAN SDA_618

Last updated on Thu Aug 20 2026 00:03:39 GMT+0000 (Coordinated Universal Time)

1 65581U 25203S 26231.51110717 .00000177 00000+0 14810-3 0 9995 2 65581 81.3042 311.8342 0010211 29.6042 330.5690 13.84228188 47478
UTC large
Height (km)
Speed (km/s)
/
Latitude / Longitude
Inclination (degrees)
Orbital Period (minutes)
Azimuth
Elevation
Range (km)
Doppler Factor

Next 0 passes for location: London (51.5072 / 0.1276)

No passes found over London.
PRAETORIAN SDA_618